Location: Moena
(46.3667°N, 11.6500°E)
Time: 07:58:09
(UTC+00:00)

Cosmos 1354 Rocket - Visible Passes

Search period start: 21 June 2021 00:00
Search period end: 01 July 2021 00:00
Orbit: 763 x 784 km, 74.0° (Epoch: 20 June)

Date Brightness Start Highest point End Pass type
(mag) Time Alt. Az. Time Alt. Az. Time Alt. Az.
21 Jun 4.5 21:11:46 10° NNW 21:17:00 51° ENE 21:20:13 22° SE visible
21 Jun 5.5 22:54:37 10° NW 22:58:49 24° W 23:00:36 20° SW visible
22 Jun 5.1 20:36:36 10° N 20:41:27 34° ENE 20:45:29 14° ESE visible
22 Jun 4.9 22:18:47 10° NW 22:23:40 38° WSW 22:25:51 26° SSW visible
23 Jun 5.6 20:01:36 10° N 20:05:49 23° NE 20:10:01 10° ESE visible
23 Jun 4.3 21:43:10 10° NNW 21:48:26 60° WSW 21:51:08 28° S visible
24 Jun 4.0 21:07:44 10° NNW 21:13:07 87° ENE 21:16:27 24° SSE visible
24 Jun 6.2 22:52:01 10° WNW 22:54:29 13° W 22:56:49 10° WSW visible
25 Jun 4.4 20:32:26 10° NNW 20:37:42 56° ENE 20:41:47 17° SE visible
25 Jun 5.8 22:15:28 10° NW 22:19:26 22° W 22:22:10 15° SW visible
26 Jun 4.9 19:57:14 10° N 20:02:11 37° ENE 20:07:05 10° SE visible
26 Jun 5.2 21:39:32 10° NW 21:44:19 34° WSW 21:47:32 18° SSW visible
27 Jun 4.5 21:03:54 10° NNW 21:09:06 54° WSW 21:12:55 18° S visible
28 Jun 4.1 20:28:25 10° NNW 20:33:47 85° WSW 20:38:21 14° SSE visible
28 Jun 6.4 22:13:12 10° WNW 22:15:04 12° W 22:16:57 10° WSW visible
29 Jun 4.3 19:53:05 10° NNW 19:58:23 62° ENE 20:03:38 10° SE visible
29 Jun 6.1 21:36:20 10° NW 21:40:03 20° W 21:43:45 10° SW visible
30 Jun 5.5 21:00:19 10° NW 21:04:56 31° W 21:09:32 10° SSW visible
